Yoho Park, British Columbia

1:09 PM MDT on August 21, 2017 (GMT -0600)
Yoho Park

Weather History for CWYL - December, 2013

Change the Weather History Date:

Tuesday, December 10, 2013

  Actual Average Record
Temperature  
Mean Temperature -0 °F -  
Max Temperature 4 °F - - ()
Min Temperature -5 °F - - ()
Degree Days  
Heating Degree Days 66    
Moisture  
Dew Point -2 °F    
Average Humidity 87    
Maximum Humidity 91    
Minimum Humidity 77    
Precipitation  
Precipitation 0.01 in - - ()
Sea Level Pressure  
Sea Level Pressure 30.33 in    
Wind  
Wind Speed 18 mph ()    
Max Wind Speed 26 mph    
Max Gust Speed 33 mph    
T = Trace of Precipitation, MM = Missing Value Source: Averaged Metar Reports

Daily Weather History Graph

Daily Weather History Graph

Search for Another Location

Airport or City:

Trip Planner

Search our weather history database for the weather conditions in past years. The results will help you decide how hot, cold, wet, or windy it might be!

Date:

Astronomy

Dec. 10, 2013 Rise Set
Actual Time 8:39 AM MST 4:36 PM MST
Civil Twilight 8:00 AM MST 5:16 PM MST
Nautical Twilight 7:17 AM MST 5:59 PM MST
Astronomical Twilight 6:36 AM MST 6:39 PM MST
Moon 1:16 PM MST (12/10) 1:22 AM MST (12/10)
Length of Visible Light 9h 16m
Length of Day
7h 56m
Waxing Gibbous, 62% of the Moon is Illuminated
Dec 10
Waxing Gibbous
Dec 17
Full
Dec 25
Last Quarter
Jan 1
New
Jan 7
First Quarter

Hourly Weather History & Observations

Time (MST) Temp. Windchill Dew Point Humidity Pressure Visibility Wind Dir Wind Speed Gust Speed Precip Events Conditions
12:00 AM -1.5 °F -26.6 °F -4.5 °F 87% 30.25 in - West 26.5 mph 33.4 mph 0.01 in   Unknown
1:00 AM -1.3 °F -25.9 °F -4.4 °F 87% 30.25 in - West 25.3 mph - N/A   Unknown
2:00 AM -1.8 °F -24.7 °F -4.9 °F 87% 30.24 in - West 20.7 mph 27.6 mph N/A   Unknown
3:00 AM -1.7 °F -24.0 °F -4.5 °F 88% 30.25 in - WSW 19.6 mph - N/A   Unknown
4:00 AM -1.7 °F -22.8 °F -4.5 °F 88% 30.26 in - WSW 17.3 mph - N/A   Unknown
5:00 AM -1 °F - -5 °F 77% 30.26 in - WSW 17.3 mph - -  
5:00 AM -1.5 °F -22.6 °F -4.5 °F 87% 30.26 in - WSW 17.3 mph - N/A   Unknown
6:00 AM -1.1 °F -22.1 °F -4.2 °F 87% 30.27 in - WSW 17.3 mph - N/A   Unknown
7:00 AM -1.3 °F -23.5 °F -4.4 °F 87% 30.28 in - WSW 19.6 mph - N/A   Unknown
8:00 AM -1.1 °F -21.5 °F -4.0 °F 88% 30.31 in - WSW 16.1 mph - N/A   Unknown
9:00 AM -1.8 °F -23.0 °F -4.7 °F 88% 30.33 in - WSW 17.3 mph - N/A   Unknown
10:00 AM -1.1 °F -21.5 °F -4.2 °F 87% 30.34 in - SW 16.1 mph - N/A   Unknown
11:00 AM -0 °F - -3 °F 78% 30.36 in - SW 15.0 mph - -  
11:00 AM -0.2 °F -19.6 °F -3.5 °F 86% 30.36 in - SW 15.0 mph - N/A   Unknown
12:00 PM 1.9 °F -17.5 °F -1.7 °F 85% 30.35 in - WSW 16.1 mph 21.9 mph N/A   Unknown
1:00 PM 3.4 °F -15.0 °F -0.6 °F 84% 30.35 in - WSW 15.0 mph - N/A   Unknown
2:00 PM 4.3 °F -14.5 °F 0.5 °F 84% 30.35 in - WSW 16.1 mph - N/A   Unknown
3:00 PM 4.3 °F -15.1 °F 0.3 °F 84% 30.36 in - WSW 17.3 mph - N/A   Unknown
4:00 PM 3.0 °F -16.7 °F -0.0 °F 87% 30.37 in - WSW 17.3 mph - N/A   Unknown
5:00 PM 3 °F - 1 °F 85% 30.37 in - WSW 19.6 mph - -  
5:00 PM 3.0 °F -17.8 °F 0.7 °F 90% 30.37 in - WSW 19.6 mph - N/A   Unknown
6:00 PM 3.2 °F -18.6 °F 0.9 °F 90% 30.38 in - WSW 21.9 mph - N/A   Unknown
7:00 PM 3.2 °F -16.5 °F 0.7 °F 89% 30.37 in - WSW 17.3 mph - N/A   Unknown
8:00 PM 3.2 °F -17.1 °F 1.0 °F 91% 30.37 in - WSW 18.4 mph - N/A   Unknown
9:00 PM 3.2 °F -18.6 °F 0.9 °F 90% 30.38 in - WSW 21.9 mph - N/A   Unknown
10:00 PM 3.7 °F -18.3 °F 1.6 °F 91% 30.38 in - WSW 23.0 mph 29.9 mph N/A   Unknown
11:00 PM 4 °F - 2 °F 84% 30.38 in - West 21.9 mph - -  
11:00 PM 3.9 °F -17.6 °F 1.6 °F 90% 30.38 in - West 21.9 mph - N/A   Unknown